Regional Weather Roundup
Issued by NWS

Home | Current Version | Previous Version | Graphics & Text | Print | Product List | Glossary On
Versions: 1 2 3 4 5 6 7 8 9 10 11 12 13 14 15 16 17 18 19 20 21 22 23 24 25 26 27 28 29 30 31 32 33 34 35 36 37 38 39 40 41 42 43 44 45 46 47 48 49 50
000
ASUS43 KFSD 310310
RWRSD

WEATHER ROUNDUP FOR SOUTH DAKOTA
NATIONAL WEATHER SERVICE SIOUX FALLS SD
1000 PM CDT SAT JUL 30 2016

NOTE: "FAIR" INDICATES FEW OR NO CLOUDS BELOW 12,000 FEET WITH NO
SIGNIFICANT WEATHER AND/OR OBSTRUCTIONS TO VISIBILITY.


SDZ001>005-009-010-012>017-310400-
NORTHWEST AND NORTH CENTRAL SOUTH DAKOTA

CITY           SKY/WX    TMP DP  RH WIND       PRES   REMARKS
BUFFALO          N/A     81  56  42 SE10      29.73S
FAITH            N/A     79  59  50 S15       29.81R
MOBRIDGE       CLEAR     70  64  81 MISG      29.81R
$$

SDZ012>016-024>037-041>051-057-063-072>074-310400-
SOUTHWEST AND SOUTH CENTRAL SOUTH DAKOTA

CITY           SKY/WX    TMP DP  RH WIND       PRES   REMARKS
RAPID CTY ARPT TSTM      63  61  93 SE23G31   29.83F FOG
PIERRE         TSTM      67  62  84 E31G48    29.90R VSB 3/4
CUSTER         TSTM      56  52  86 NE10G28   29.97F
ELLSWORTH AFB  TSTM      69  61  76 S9G20     29.83
PHILIP         CLOUDY    76  63  64 S13       29.77F
PINE RIDGE     CLEAR     80  61  52 SE17G23   29.85S
WINNER         FAIR      76  69  79 SE15      29.86R
$$

SDZ004>011-016>023-039-040-310400-
NORTHEAST SOUTH DAKOTA

CITY           SKY/WX    TMP DP  RH WIND       PRES   REMARKS
ABERDEEN       CLOUDY    69  59  70 SE9       29.89R
WATERTOWN      CLOUDY    71  58  63 SE8       29.95R
BROOKINGS      CLEAR     69  60  73 SE9       29.96R
SISSETON         N/A     66  60  81 S6        29.92R
$$

SDZ017-020-022-023-036>040-048>070-310400-
SOUTHEAST SOUTH DAKOTA

CITY           SKY/WX    TMP DP  RH WIND       PRES   REMARKS
SIOUX FALLS    PTCLDY    74  59  59 SE8       29.96R
HURON          CLOUDY    76  62  62 SE13      29.90R
CHAMBERLAIN    CLOUDY    76  67  72 SE13      29.88S
MITCHELL       CLEAR     75  63  66 SE9       29.92R
YANKTON        PTCLDY    72  61  68 SE6       29.93R
$$

ABBREVIATIONS USED IN REMARKS
   TC - TEMPERATURE IN CELSIUS
  WCI - WIND CHILL INDEX
   HX - HEAT INDEX
  VSB - VISIBILITY




USA.gov is the U.S. government's official web portal to all federal, state and local government web resources and services.